Location: Ferchesar
(52.6477°N, 12.4298°E)
Time: 00:27:46
(UTC+01:00)

Transit 2A Rocket - Pass Details

Date: 11 December 2021
Orbit: 584 x 918 km, 66.7° (Epoch: 21 January)

Event Time Altitude Azimuth Distance (km) Brightness Sun altitude
Rises 05:48:48 0° 193° (SSW) 3,362 8.3 -20.3°
Reaches altitude 10° 05:51:16 10° 187° (S) 2,475 7.7 -19.9°
Maximum altitude 05:56:43 44° 117° (ESE) 1,209 6.5 -19.1°
Drops below altitude 10° 06:02:29 10° 47° (NE) 2,613 8.2 -18.3°
Sets 06:05:08 0° 42° (NE) 3,567 8.8 -17.9°
